{"data":{"norad_id":67851,"intl_designator":"2026-034B","name":"STARLINK-36348","alt_names":[],"object_type":"PAYLOAD","status":"ACTIVE","operator":null,"country":"US","launch_date":"2026-02-20","launch_site_code":"AFETR","launch_vehicle":null,"mission":null,"orbit_class":"UNKNOWN","rcs_meters":null,"size_class":null,"mass_kg":null,"dimensions":null,"purposes":["comms"],"wikipedia_slug":null,"has_3d_model":false,"image_url":null,"decayed_at":null,"tle_current":{"epoch":"2026-09-19T19:35:02.654016Z","epoch_age_seconds":125626,"freshness":"FRESH","line1":"1 67851U 26034B   26262.81600294  .00021284  00000+0  63889-3 0  9993","line2":"2 67851  53.1595  20.7054 0001141 111.6186 248.4938 15.34418355 33784","mean_motion":15.34418355,"eccentricity":0.0001141,"inclination_deg":53.1595,"raan_deg":20.7054,"arg_perigee_deg":111.6186,"mean_anomaly_deg":248.4938,"bstar":0.00063889,"rev_number":3378,"period_min":93.84663545686,"perigee_km":461.86815217604,"apogee_km":463.42921946955,"semimajor_km":6840.7856858228,"source":"CELESTRAK","updated_at":"2026-09-20T09:00:43.673435Z"}}}